BRU6767 UMMS-UMGG

Flight info

Callsign BRU6767
Flight time N/A
Altitude 21000
Route ARZIM2F ARZIM N623 GOGER GOGER3D
Aircraft B738/M-SDE2E3FGHIRWXY/LB1

Departure

Time 2026-04-28 17:55
Airport Minsk National Airport (UMMS)

Arrival

Time N/A
Airport Gomel Airport (UMGG)
Time Latitude Longitude Altitude Speed Heading
2026-04-28 17:31 53.88860 28.03239 677 ft 0 kts 11°
2026-04-28 17:42 53.88841 28.03233 677 ft 2 kts 11°
2026-04-28 17:42 53.88826 28.03228 677 ft 2 kts 21°
2026-04-28 17:43 53.88814 28.03215 677 ft 2 kts 44°
2026-04-28 17:43 53.88805 28.03195 677 ft 2 kts 65°
2026-04-28 17:43 53.88800 28.03171 677 ft 2 kts 85°
2026-04-28 17:43 53.88801 28.03145 677 ft 2 kts 105°
2026-04-28 17:44 53.88806 28.03121 677 ft 2 kts 104°
2026-04-28 17:44 53.88809 28.03097 677 ft 2 kts 105°
2026-04-28 17:44 53.88813 28.03072 677 ft 2 kts 104°
2026-04-28 17:44 53.88819 28.03051 677 ft 0 kts 134°
2026-04-28 17:45 53.88824 28.03044 677 ft 1 kts 140°
2026-04-28 17:45 53.88826 28.03042 677 ft 0 kts 138°
2026-04-28 17:46 53.88825 28.03042 677 ft 0 kts 138°
2026-04-28 17:46 53.88818 28.03052 677 ft 5 kts 136°
2026-04-28 17:47 53.88770 28.03133 677 ft 13 kts 135°
2026-04-28 17:47 53.88687 28.03259 677 ft 19 kts 139°
2026-04-28 17:47 53.88567 28.03431 677 ft 25 kts 140°
2026-04-28 17:47 53.88475 28.03577 677 ft 29 kts 137°
2026-04-28 17:48 53.88484 28.03735 677 ft 20 kts 320°
2026-04-28 17:48 53.88603 28.03723 677 ft 18 kts 36°
2026-04-28 17:48 53.88707 28.03856 677 ft 18 kts 46°
2026-04-28 17:48 53.88789 28.04010 677 ft 16 kts 56°
2026-04-28 17:49 53.88850 28.04176 677 ft 16 kts 56°
2026-04-28 17:49 53.88925 28.04324 677 ft 16 kts 48°
2026-04-28 17:49 53.89001 28.04465 677 ft 16 kts 46°
2026-04-28 17:49 53.89076 28.04604 677 ft 15 kts 51°
2026-04-28 17:50 53.89142 28.04753 677 ft 15 kts 50°
2026-04-28 17:50 53.89179 28.04909 677 ft 14 kts 115°
2026-04-28 17:50 53.89114 28.05030 677 ft 13 kts 137°
2026-04-28 17:50 53.89042 28.05139 677 ft 13 kts 139°
2026-04-28 17:51 53.88970 28.05243 677 ft 13 kts 140°
2026-04-28 17:51 53.88895 28.05353 677 ft 16 kts 139°
2026-04-28 17:51 53.88794 28.05499 677 ft 21 kts 139°
2026-04-28 17:51 53.88662 28.05683 677 ft 27 kts 140°
2026-04-28 17:52 53.88504 28.05915 677 ft 32 kts 140°
2026-04-28 17:52 53.88329 28.06186 677 ft 33 kts 138°
2026-04-28 17:52 53.87988 28.06705 677 ft 29 kts 139°
2026-04-28 17:53 53.87970 28.06886 677 ft 16 kts 57°
2026-04-28 17:53 53.88057 28.06967 677 ft 15 kts 336°
2026-04-28 17:53 53.88103 28.06917 677 ft 0 kts 320°
2026-04-28 17:54 53.88137 28.06868 677 ft 28 kts 318°
2026-04-28 17:54 53.88452 28.06388 677 ft 91 kts 319°
2026-04-28 17:54 53.89067 28.05476 677 ft 141 kts 318°
2026-04-28 17:54 53.89869 28.04258 913 ft 161 kts 319°
2026-04-28 17:55 53.90731 28.03028 1533 ft 167 kts 321°
2026-04-28 17:55 53.91619 28.01748 2222 ft 172 kts 320°
2026-04-28 17:55 53.92543 28.00379 2726 ft 182 kts 320°
2026-04-28 17:55 53.93521 27.98921 3169 ft 197 kts 321°
2026-04-28 17:56 53.94561 27.97371 3907 ft 200 kts 320°
2026-04-28 17:56 53.95696 27.95997 4472 ft 210 kts 339°
2026-04-28 17:56 53.97154 27.95822 5027 ft 223 kts
2026-04-28 17:56 53.98660 27.96618 5705 ft 230 kts 16°
2026-04-28 17:57 54.00171 27.97516 6382 ft 234 kts 15°
2026-04-28 17:57 54.01714 27.98358 7092 ft 236 kts 14°
2026-04-28 17:57 54.03280 27.99175 7803 ft 239 kts 15°
2026-04-28 17:57 54.04809 28.00336 8074 ft 246 kts 31°
2026-04-28 17:58 54.05959 28.02520 8098 ft 253 kts 59°
2026-04-28 17:58 54.06421 28.05423 8089 ft 259 kts 83°
2026-04-28 17:58 54.06407 28.08500 8086 ft 261 kts 88°
2026-04-28 17:58 54.06378 28.11550 8091 ft 261 kts 86°
2026-04-28 17:59 54.06374 28.14645 8087 ft 261 kts 86°
2026-04-28 17:59 54.06372 28.17749 8091 ft 261 kts 86°
2026-04-28 17:59 54.06358 28.20799 8091 ft 261 kts 86°
2026-04-28 17:59 54.06416 28.23891 8126 ft 271 kts 82°
2026-04-28 18:00 54.06597 28.27196 8589 ft 282 kts 80°
2026-04-28 18:00 54.06816 28.30523 9326 ft 284 kts 80°
2026-04-28 18:00 54.06997 28.33839 10043 ft 287 kts 85°
2026-04-28 18:00 54.06772 28.37245 10703 ft 294 kts 105°
2026-04-28 18:01 54.05825 28.40297 11388 ft 300 kts 127°
2026-04-28 18:01 54.04319 28.42754 12113 ft 303 kts 141°
2026-04-28 18:01 54.02642 28.44893 12789 ft 306 kts 142°
2026-04-28 18:01 54.00912 28.47018 13498 ft 309 kts 143°
2026-04-28 18:02 53.99165 28.49160 14222 ft 312 kts 143°
2026-04-28 18:02 53.97414 28.51317 14931 ft 315 kts 143°
2026-04-28 18:02 53.95626 28.53528 15660 ft 317 kts 143°
2026-04-28 18:02 53.93856 28.55723 16377 ft 320 kts 143°
2026-04-28 18:03 53.92063 28.57946 17092 ft 321 kts 143°
2026-04-28 18:03 53.90273 28.60165 17784 ft 324 kts 142°
2026-04-28 18:03 53.88776 28.62019 18342 ft 326 kts 142°
2026-04-28 18:03 53.86940 28.64290 19020 ft 327 kts 142°
2026-04-28 18:04 53.85116 28.66543 19680 ft 329 kts 143°
2026-04-28 18:04 53.83263 28.68828 20397 ft 328 kts 143°
2026-04-28 18:04 53.81442 28.71070 20969 ft 328 kts 143°
2026-04-28 18:04 53.79585 28.73356 21083 ft 331 kts 143°
2026-04-28 18:05 53.77733 28.75634 21082 ft 327 kts 143°
2026-04-28 18:05 53.76513 28.77132 21081 ft 327 kts 143°
2026-04-28 18:05 53.74055 28.80150 21080 ft 328 kts 143°
2026-04-28 18:05 53.72236 28.82381 21084 ft 327 kts 143°
2026-04-28 18:06 53.70390 28.84642 21085 ft 327 kts 143°
2026-04-28 18:06 53.68540 28.86906 21087 ft 327 kts 143°
2026-04-28 18:06 53.66705 28.89148 21088 ft 327 kts 143°
2026-04-28 18:06 53.64865 28.91392 21091 ft 328 kts 143°
2026-04-28 18:07 53.62990 28.93678 21079 ft 344 kts 143°
2026-04-28 18:07 53.60989 28.96116 21068 ft 360 kts 143°
2026-04-28 18:07 53.58936 28.98615 21078 ft 375 kts 143°
2026-04-28 18:07 53.56797 29.01215 21070 ft 390 kts 143°
2026-04-28 18:08 53.54552 29.03937 21070 ft 404 kts 143°
2026-04-28 18:08 53.52255 29.06719 21068 ft 417 kts 143°
2026-04-28 18:08 53.49858 29.09615 21064 ft 431 kts 143°
2026-04-28 18:08 53.47428 29.12547 21067 ft 432 kts 143°
2026-04-28 18:09 53.44999 29.15473 21066 ft 427 kts 143°
2026-04-28 18:09 53.42590 29.18418 21076 ft 428 kts 142°
2026-04-28 18:09 53.40282 29.21482 21073 ft 430 kts 140°
2026-04-28 18:09 53.37976 29.24728 21072 ft 437 kts 139°
2026-04-28 18:10 53.35663 29.28064 21076 ft 437 kts 138°
2026-04-28 18:10 53.33383 29.31365 21077 ft 436 kts 138°
2026-04-28 18:10 53.31105 29.34651 21083 ft 436 kts 138°
2026-04-28 18:10 53.28797 29.37958 21079 ft 436 kts 139°
2026-04-28 18:11 53.26489 29.41242 21079 ft 436 kts 139°
2026-04-28 18:11 53.24191 29.44493 21075 ft 436 kts 139°
2026-04-28 18:11 53.21856 29.47779 21078 ft 436 kts 139°
2026-04-28 18:11 53.19581 29.50971 21079 ft 424 kts 139°
2026-04-28 18:12 53.17371 29.54061 21082 ft 406 kts 139°
2026-04-28 18:12 53.15259 29.57009 21074 ft 396 kts 139°
2026-04-28 18:12 53.13122 29.59991 21081 ft 402 kts 139°
2026-04-28 18:12 53.10988 29.62964 21080 ft 401 kts 139°
2026-04-28 18:13 53.08836 29.65955 21074 ft 401 kts 140°
2026-04-28 18:13 53.06704 29.68916 21071 ft 401 kts 140°
2026-04-28 18:13 53.04582 29.71858 21076 ft 399 kts 140°
2026-04-28 18:13 53.02454 29.74804 21075 ft 399 kts 140°
2026-04-28 18:14 53.00323 29.77749 21072 ft 400 kts 140°
2026-04-28 18:14 52.98168 29.80725 21077 ft 401 kts 140°
2026-04-28 18:14 52.96030 29.83672 21080 ft 401 kts 140°
2026-04-28 18:14 52.93881 29.86631 21076 ft 401 kts 140°
2026-04-28 18:15 52.91736 29.89578 21073 ft 400 kts 140°
2026-04-28 18:15 52.89608 29.92501 21073 ft 400 kts 140°
2026-04-28 18:15 52.87455 29.95454 21072 ft 401 kts 140°
2026-04-28 18:15 52.85323 29.98373 21074 ft 401 kts 140°
2026-04-28 18:16 52.83168 30.01320 21054 ft 401 kts 140°
2026-04-28 18:16 52.81051 30.04210 20634 ft 398 kts 140°
2026-04-28 18:16 52.78930 30.07102 19875 ft 399 kts 140°
2026-04-28 18:16 52.76764 30.10053 19057 ft 402 kts 140°
2026-04-28 18:17 52.74628 30.12959 18427 ft 398 kts 140°
2026-04-28 18:17 52.72513 30.15834 17804 ft 395 kts 140°
2026-04-28 18:17 52.70401 30.18701 17150 ft 393 kts 140°
2026-04-28 18:17 52.68318 30.21524 16527 ft 390 kts 140°
2026-04-28 18:18 52.66211 30.24378 15901 ft 387 kts 140°
2026-04-28 18:18 52.64153 30.27161 15268 ft 385 kts 140°
2026-04-28 18:18 52.62193 30.30116 14936 ft 380 kts 133°
2026-04-28 18:18 52.61070 30.32355 14587 ft 384 kts 123°
2026-04-28 18:19 52.59615 30.37585 13673 ft 381 kts 104°
2026-04-28 18:19 52.58968 30.41773 12939 ft 381 kts 101°
2026-04-28 18:19 52.58407 30.46014 12190 ft 380 kts 99°
2026-04-28 18:19 52.57871 30.50257 11485 ft 379 kts 99°
2026-04-28 18:20 52.57335 30.54453 10904 ft 374 kts 99°
2026-04-28 18:20 52.56799 30.58540 10594 ft 362 kts 100°
2026-04-28 18:20 52.56263 30.62490 10472 ft 346 kts 100°
2026-04-28 18:20 52.55744 30.66266 10327 ft 332 kts 101°
2026-04-28 18:21 52.55239 30.69898 10164 ft 320 kts 101°
2026-04-28 18:21 52.54754 30.73359 10011 ft 309 kts 101°
2026-04-28 18:21 52.54278 30.76732 9794 ft 300 kts 101°
2026-04-28 18:21 52.53810 30.80061 9506 ft 296 kts 100°
2026-04-28 18:22 52.53355 30.83278 9384 ft 283 kts 100°
2026-04-28 18:22 52.52928 30.86258 9207 ft 255 kts 100°
2026-04-28 18:22 52.52549 30.88890 8844 ft 228 kts 100°
2026-04-28 18:22 52.52200 30.91342 8331 ft 214 kts 99°
2026-04-28 18:23 52.51872 30.93658 7892 ft 202 kts 99°
2026-04-28 18:23 52.51565 30.95809 7524 ft 191 kts 99°
2026-04-28 18:23 52.51269 30.97890 7103 ft 184 kts 99°
2026-04-28 18:23 52.50985 30.99872 6814 ft 173 kts 99°
2026-04-28 18:24 52.50732 31.01646 6626 ft 171 kts 98°
2026-04-28 18:24 52.50551 31.02922 6477 ft 172 kts 98°
2026-04-28 18:24 52.50190 31.05458 6057 ft 172 kts 98°
2026-04-28 18:24 52.49918 31.07352 5668 ft 169 kts 98°
2026-04-28 18:25 52.49652 31.09198 5259 ft 168 kts 98°
2026-04-28 18:25 52.49383 31.11058 4844 ft 167 kts 98°
2026-04-28 18:25 52.49280 31.12897 4401 ft 162 kts 75°
2026-04-28 18:26 52.50583 31.15128 3929 ft 134 kts 357°
2026-04-28 18:26 52.51437 31.14674 3932 ft 132 kts 319°
2026-04-28 18:26 52.51869 31.13373 3924 ft 137 kts 282°
2026-04-28 18:26 52.51743 31.11767 3584 ft 148 kts 262°
2026-04-28 18:27 52.51492 31.10135 3119 ft 149 kts 263°
2026-04-28 18:27 52.51258 31.08481 2651 ft 149 kts 264°
2026-04-28 18:27 52.51264 31.06853 2184 ft 142 kts 290°
2026-04-28 18:27 52.51817 31.05563 1717 ft 139 kts 318°
2026-04-28 18:28 52.52423 31.04378 1246 ft 141 kts 295°
2026-04-28 18:28 52.52507 31.02779 776 ft 145 kts 260°
2026-04-28 18:28 52.52310 31.01201 452 ft 131 kts 261°